Weather History for Denver Centennial, CO

Change the Weather History Date:

Thursday, June 27, 2013

  Actual Average Record
Temperature  
Mean Temperature 77 °F -  
Max Temperature 95 °F 83 °F 95 °F (2013)
Min Temperature 59 °F 53 °F 48 °F (2004)
Cooling Degree Days 12    
Month to date cooling degree days 158  
Growing Degree Days 28 (Base 50)    
Moisture  
Dew Point 37 °F    
Average Humidity 28    
Maximum Humidity 43    
Minimum Humidity 12    
Precipitation  
Precipitation 0.00 in - - ()
Month to date precipitation 0.49  
Year to date precipitation 5.25  
Sea Level Pressure  
Sea Level Pressure 30.01 in    
Wind  
Wind Speed 7 mph (East)    
Max Wind Speed 17 mph    
Max Gust Speed 22 mph    
Visibility 10 miles    
Events      
Averages and records for this station are not official NWS values.
T = Trace of Precipitation, MM = Missing Value Source: NWS Daily Summary

Daily Weather History Graph

Daily Weather History Graph

Search for Another Location

Airport:

Trip Planner

Search our weather history database for the weather conditions in past years. The results will help you decide how hot, cold, wet, or windy it might be!

Date:

Astronomy

Jun. 27, 2013 Rise Set
Actual Time 5:34 AM MDT 8:30 PM MDT
Civil Twilight 5:01 AM MDT 9:03 PM MDT
Nautical Twilight 4:20 AM MDT 9:44 PM MDT
Astronomical Twilight 3:32 AM MDT 10:31 PM MDT
Moon 11:30 PM MDT (6/27) 10:36 AM MDT (6/27)
Length of Visible Light 16h 01m
Length of Day
14h 56m
Waning Gibbous, 76% of the Moon is Illuminated
Jun 27
Waning Gibbous
Jun 29
Last Quarter
Jul 8
New
Jul 15
First Quarter
Jul 22
Full

Hourly Weather History & Observations

Time (MDT) Temp. Dew Point Humidity Pressure Visibility Wind Dir Wind Speed Gust Speed Precip Events Conditions
12:53 AM 71.1 °F 37.0 °F 29% 29.92 in 10.0 mi South 5.8 mph - N/A   Partly Cloudy
1:53 AM 69.1 °F 39.0 °F 33% 29.93 in 10.0 mi South 4.6 mph - N/A   Partly Cloudy
2:53 AM 69.1 °F 37.9 °F 32% 29.93 in 10.0 mi SW 3.5 mph - N/A   Clear
3:53 AM 66.9 °F 37.0 °F 33% 29.94 in 10.0 mi SSW 5.8 mph - N/A   Clear
4:53 AM 66.0 °F 37.0 °F 34% 29.97 in 10.0 mi NNE 5.8 mph - N/A   Partly Cloudy
5:53 AM 63.0 °F 39.0 °F 41% 29.99 in 10.0 mi SW 6.9 mph - N/A   Clear
6:53 AM 69.1 °F 39.9 °F 35% 30.01 in 10.0 mi Calm Calm - N/A   Clear
7:53 AM 79.0 °F 35.1 °F 20% 30.02 in 10.0 mi Variable 4.6 mph - N/A   Clear
8:53 AM 84.0 °F 35.1 °F 17% 30.03 in 10.0 mi NW 5.8 mph - N/A   Clear
9:53 AM 86.0 °F 32.0 °F 14% 30.04 in 10.0 mi North 11.5 mph - N/A   Partly Cloudy
10:53 AM 88.0 °F 34.0 °F 15% 30.05 in 10.0 mi NNE 5.8 mph - N/A   Partly Cloudy
11:53 AM 89.1 °F 32.0 °F 13% 30.05 in 10.0 mi ENE 8.1 mph - N/A   Partly Cloudy
12:53 PM 91.0 °F 34.0 °F 13% 30.05 in 10.0 mi East 9.2 mph - N/A   Partly Cloudy
1:53 PM 91.9 °F 35.1 °F 13% 30.03 in 10.0 mi ENE 6.9 mph 18.4 mph N/A   Partly Cloudy
2:53 PM 93.0 °F 36.0 °F 13% 30.02 in 10.0 mi NE 15.0 mph 18.4 mph N/A   Partly Cloudy
3:53 PM 93.0 °F 35.1 °F 13% 30.01 in 10.0 mi NNE 13.8 mph 20.7 mph N/A   Scattered Clouds
4:53 PM 93.0 °F 33.1 °F 12% 30.00 in 10.0 mi NNE 10.4 mph - N/A   Partly Cloudy
5:53 PM 91.9 °F 34.0 °F 13% 30.00 in 10.0 mi ENE 10.4 mph 20.7 mph N/A   Partly Cloudy
6:53 PM 90.0 °F 35.1 °F 14% 29.99 in 10.0 mi East 9.2 mph - N/A   Partly Cloudy
7:53 PM 86.0 °F 37.9 °F 18% 29.99 in 10.0 mi East 6.9 mph - N/A   Scattered Clouds
8:53 PM 79.0 °F 39.0 °F 24% 30.01 in 10.0 mi ESE 6.9 mph - N/A   Scattered Clouds
9:53 PM 78.1 °F 39.9 °F 25% 30.04 in 10.0 mi ESE 9.2 mph - N/A   Partly Cloudy
10:53 PM 77.0 °F 41.0 °F 28% 30.06 in 10.0 mi SSE 10.4 mph - N/A   Partly Cloudy
11:53 PM 75.0 °F 43.0 °F 32% 30.07 in 10.0 mi SSE 12.7 mph - N/A   Partly Cloudy